We konden geen weer-waarchuwingen ophalen. Ga rechtstreeks naar de Meteoalarm site : www.meteoalarm.eu en controleer daar .



Onweer radar Meer informatie blitzortung!


Regen radar Meer informatie rain snow radar


Bezoek onze andere website:

Template documentation
and downloads

And another site



15 daagse weersverwachting Hohenems (AT)

  • Overzicht
  • Per uur
  • 15 dagen
  • Extra
  • Vergelijk
  • Kaarten
  • Dagkaart
  • Meer »
  • Info
  • Statistieken
  • Directe link
    Temp 6h Neerslag Wind  
 06:23     20:27    Daglengte: 14:04 Vandaag
02:00
19°
 
2
08:00
18°
 
1
14:00
22°
 
2
20:00
20°
8.0 mm
2
warningclass
 06:25     20:26    Daglengte: 14:01 Morgen
02:00
17°
34.1 mm
1
warningclass
08:00
17°
33.3 mm
2
warningclass
14:00
19°
39.6 mm
2
20:00
18°
43.6 mm
2
 06:26     20:24    Daglengte: 13:58 Zaterdag 20 Aug
02:00
17°
40.9 mm
1
08:00
17°
32.0 mm
1
14:00
22°
13.0 mm
2
warningclass
20:00
19°
72.9 mm
2
Locatie info
Region: Vorarlberg
Latitude: 47.3623°N
Longitude: 9.6889°E
417 masl
Postcode: 6845
Temp/Neerslag /Baro Onweer/Dauwpunt
    Temp Baro 1h Neerslag Dauwpunt Wind UV Bewolking  
 06:23     20:27    Daglengte: 14:04 Vandaag
01:00
19°
1014.0 hPa
14%
16.8°
2
Windvlaag: 1.3 m/s
45%
02:00
19°
1014.0 hPa
16%
16.7°
2
Windvlaag: 0.9 m/s
19%
03:00
18°
1013.7 hPa
14%
16.5°
1
Windvlaag: 0.3 m/s
22%
04:00
18°
1013.6 hPa
14%
16.0°
2
Windvlaag: -0.6 m/s
42%
05:00
17°
1013.4 hPa
14%
15.6°
2
Windvlaag: -1.8 m/s
38%
06:00
17°
1013.0 hPa
14%
15.3°
2
Windvlaag: -1.6 m/s
70%
07:00
17°
1013.1 hPa
14%
15.4°
1
Windvlaag: -1.6 m/s
79%
08:00
18°
1012.7 hPa
14%
16.3°
1
Windvlaag: -1.3 m/s
72%
09:00
19°
1013.2 hPa
18%
16.9°
1
Windvlaag: -1.6 m/s
85%
10:00
19°
1013.2 hPa
27%
16.2°
1
Windvlaag: -2.2 m/s
83%
11:00
20°
1013.1 hPa
49%
15.8°
2
Windvlaag: -2.7 m/s
85%
12:00
20°
1012.9 hPa
15%
16.0°
2
Windvlaag: -2.9 m/s
81%
13:00
21°
1012.9 hPa
76%
15.1°
2
Windvlaag: -3.2 m/s
84%
14:00
22°
1012.3 hPa
78%
14.7°
2
Windvlaag: -3.2 m/s
84%
15:00
23°
1011.8 hPa
29%
14.8°
2
Windvlaag: -3.6 m/s
65%
16:00
23°
1011.6 hPa
80%
14.5°
3
Windvlaag: -3.5 m/s
73%
17:00
23°
1011.5 hPa
45%
14.7°
3
Windvlaag: -3.7 m/s
60%
18:00
22°
1011.0 hPa
82%
14.1°
3
Windvlaag: -3.8 m/s
58% warningclass
19:00
22°
1011.3 hPa 3.8 mm
82%
14.1°
2
Windvlaag: -3.2 m/s
61%
20:00
20°
1011.9 hPa 4.2 mm
82%
16.1°
2
Windvlaag: -3.2 m/s
74% warningclass
21:00
19°
1012.3 hPa 4.8 mm
82%
16.1°
2
Windvlaag: -3.3 m/s
74% warningclass
22:00
18°
1012.5 hPa 5.8 mm
82%
16.2°
1
Windvlaag: -2.5 m/s
73% warningclass
23:00
18°
1012.8 hPa 6.1 mm
82%
16.7°
1
Windvlaag: -0.1 m/s
73% warningclass
 06:25     20:26    Daglengte: 14:01 Morgen
00:00
18°
1013.0 hPa 6.0 mm
82%
16.2°
1
Windvlaag: 0.3 m/s
76%
01:00
18°
1012.9 hPa 5.9 mm
82%
16.6°
1
Windvlaag: 1.6 m/s
85% warningclass
02:00
17°
1012.8 hPa 5.5 mm
82%
16.5°
1
Windvlaag: 0.3 m/s
86% warningclass
03:00
17°
1012.6 hPa 5.0 mm
82%
16.4°
1
Windvlaag: 0.5 m/s
79% warningclass
04:00
17°
1012.7 hPa 4.6 mm
82%
16.2°
1
Windvlaag: 0.2 m/s
86% warningclass
05:00
17°
1012.7 hPa 5.1 mm
82%
16.0°
1
Windvlaag: 0.6 m/s
86% warningclass
06:00
17°
1012.7 hPa 5.5 mm
82%
16.0°
1
Windvlaag: 1.5 m/s
86% warningclass
07:00
17°
1013.3 hPa 6.2 mm
82%
15.9°
2
Windvlaag: 0.7 m/s
86% warningclass
08:00
17°
1013.5 hPa 6.9 mm
82%
16.2°
2
Windvlaag: -2.3 m/s
86% warningclass
09:00
18°
1013.6 hPa 6.4 mm
82%
16.3°
2
Windvlaag: -2.3 m/s
86% warningclass
10:00
18°
1014.1 hPa 6.1 mm
82%
16.2°
2
Windvlaag: -2.2 m/s
86% warningclass
11:00
18°
1014.5 hPa 6.1 mm
82%
15.5°
2
Windvlaag: -1.4 m/s
86% warningclass
12:00
19°
1015.0 hPa 6.2 mm
82%
15.8°
2
Windvlaag: -1 m/s
86% warningclass
13:00
19°
1015.4 hPa 7.1 mm
82%
17.1°
2
Windvlaag: 0.5 m/s
86%
14:00
19°
1015.7 hPa 7.6 mm
82%
17.8°
2
Windvlaag: -0.9 m/s
86%
15:00
19°
1015.9 hPa 8.0 mm
82%
17.4°
1
Windvlaag: -0.1 m/s
86%
16:00
18°
1016.1 hPa 9.1 mm
82%
17.4°
1
Windvlaag: 2.7 m/s
86%
17:00
19°
1016.1 hPa 9.1 mm
82%
17.3°
2
Windvlaag: 4.2 m/s
78%
18:00
19°
1016.3 hPa 9.1 mm
82%
17.0°
2
Windvlaag: 5.1 m/s
64%
19:00
19°
1016.6 hPa 8.5 mm
80%
16.8°
2
Windvlaag: 6.1 m/s
65%
20:00
18°
1016.7 hPa
75%
16.9°
2
Windvlaag: 6.7 m/s
86%
21:00
18°
1017.3 hPa
39%
16.4°
2
Windvlaag: 5.9 m/s
68%
22:00
18°
1017.8 hPa 8.1 mm
78%
15.9°
2
Windvlaag: 5.3 m/s
79%
23:00
17°
1018.2 hPa 8.1 mm
100%
15.2°
2
Windvlaag: 4.5 m/s
81%
 06:26     20:24    Daglengte: 13:58 Zaterdag 20 Aug
00:00
17°
1018.4 hPa 8.0 mm
99%
14.7°
1
Windvlaag: 4.1 m/s
76%
01:00
17°
1018.4 hPa 8.4 mm
97%
14.2°
1
Windvlaag: 2.9 m/s
79%
02:00
17°
1018.4 hPa 8.4 mm
97%
14.3°
1
Windvlaag: 2.8 m/s
60%
03:00
17°
1018.1 hPa 8.2 mm
92%
13.5°
2
Windvlaag: 4 m/s
42%
04:00
17°
1018.3 hPa 8.0 mm
92%
13.7°
1
Windvlaag: 3.7 m/s
60%
05:00
16°
1018.2 hPa 7.9 mm
91%
12.7°
1
Windvlaag: 2.5 m/s
63%
06:00
16°
1018.4 hPa 7.9 mm
90%
12.8°
1
Windvlaag: 1.6 m/s
55%
07:00
16°
1018.8 hPa
76%
12.6°
1
Windvlaag: 1.5 m/s
37%
08:00
17°
1018.9 hPa
27%
13.0°
1
Windvlaag: 3.3 m/s
17%
09:00
19°
1018.9 hPa
27%
13.6°
1
Windvlaag: 2.8 m/s
20%
10:00
20°
1018.9 hPa
48%
14.4°
1
Windvlaag: 3 m/s
20%
11:00
20°
1019.0 hPa 13.0 mm
92%
14.7°
1
Windvlaag: 3.1 m/s
19%
12:00
21°
1018.6 hPa
92%
15.2°
2
Windvlaag: 3.9 m/s
19%
13:00
22°
1018.5 hPa
93%
15.9°
2
Windvlaag: 3.4 m/s
20%
14:00
22°
1018.2 hPa
98%
17.9°
2
Windvlaag: 4.1 m/s
30%
15:00
21°
1018.3 hPa 14.1 mm
100%
17.3°
2
Windvlaag: 4.9 m/s
36% warningclass
16:00
20°
1018.2 hPa 15.0 mm
100%
16.1°
2
Windvlaag: 4.9 m/s
54% warningclass
17:00
20°
1018.3 hPa 15.4 mm
100%
14.6°
2
Windvlaag: 5 m/s
69% warningclass
18:00
20°
1018.3 hPa 14.2 mm
100%
13.5°
1
Windvlaag: 4.2 m/s
67%
19:00
19°
1018.6 hPa 14.1 mm
99%
13.5°
2
Windvlaag: 4.1 m/s
53%
20:00
19°
1019.0 hPa
99%
14.9°
2
Windvlaag: 5.2 m/s
57%
21:00
18°
1019.5 hPa
48%
14.3°
2
Windvlaag: 5.6 m/s
20%
22:00
17°
1019.4 hPa
48%
14.4°
1
Windvlaag: 4.9 m/s
17%
23:00
17°
1019.3 hPa
44%
14.2°
1
Windvlaag: 1.7 m/s
19%
 06:27     20:22    Daglengte: 13:55 Zondag 21 Aug
00:00
16°
1019.2 hPa
91%
13.9°
1
Windvlaag: 2.1 m/s
70%
Temp/Neerslag /Baro Onweer/Dauwpunt
    Temp Baro Neerslag Dauwpunt Wind Bewolking  
 06:23     20:27    Daglengte: 14:04 Vandaag
02:00
19°
1014.0 hPa   16.7°
2
19%
05:00
17°
1013.4 hPa   15.6°
2
38%
08:00
18°
1012.7 hPa   16.3°
1
72%
11:00
20°
1013.1 hPa   15.8°
2
85%
14:00
22°
1012.3 hPa   14.7°
2
84%
17:00
23°
1011.5 hPa   14.7°
3
60%
20:00
20°
1011.9 hPa 8.0 mm 16.1°
2
74% warningclass
23:00
18°
1012.8 hPa 16.7 mm 16.7°
1
73% warningclass
 06:25     20:26    Daglengte: 14:01 Morgen
02:00
17°
1012.8 hPa 17.4 mm 16.5°
1
86% warningclass
05:00
17°
1012.7 hPa 14.7 mm 16.0°
1
86% warningclass
08:00
17°
1013.5 hPa 18.6 mm 16.2°
2
86% warningclass
11:00
18°
1014.5 hPa 18.7 mm 15.5°
2
86% warningclass
14:00
19°
1015.7 hPa 20.9 mm 17.8°
2
86%
17:00
19°
1016.1 hPa 26.1 mm 17.3°
2
78%
20:00
18°
1016.7 hPa 17.6 mm 16.9°
2
86%
23:00
17°
1018.2 hPa 16.2 mm 15.2°
2
81%
 06:26     20:24    Daglengte: 13:58 Zaterdag 20 Aug
02:00
17°
1018.4 hPa 24.8 mm 14.3°
1
60%
05:00
16°
1018.2 hPa 24.1 mm 12.7°
1
63%
08:00
17°
1018.9 hPa 7.9 mm 13.0°
1
17%
11:00
20°
1019.0 hPa 13.0 mm 14.7°
1
19%
14:00
22°
1018.2 hPa   17.9°
2
30%
17:00
20°
1018.3 hPa 44.5 mm 14.6°
2
69% warningclass
20:00
19°
1019.0 hPa 28.3 mm 14.9°
2
57%
23:00
17°
1019.3 hPa   14.2°
1
19%
 06:27     20:22    Daglengte: 13:55 Zondag 21 Aug
02:00
16°
1019.0 hPa 43.6 mm 13.5°
1
56% warningclass
05:00
14°
1018.2 hPa 85.5 mm 13.0°
2
0%
08:00
15°
1018.0 hPa 85.5 mm 14.4°
1
0%
11:00
21°
1016.3 hPa 85.6 mm 14.5°
1
1%
14:00
23°
1014.7 hPa 85.9 mm 14.6°
2
1%
17:00
21°
1014.8 hPa 87.2 mm 18.4°
1
1%
20:00
18°
1015.9 hPa 89.3 mm 15.8°
1
1%
23:00
16°
1017.1 hPa 91.7 mm 15.6°
1
1%
 06:29     20:20    Daglengte: 13:51 Maandag 22 Aug
02:00
16°
1016.6 hPa 92.0 mm 15.1°
1
1%
05:00
15°
1016.7 hPa 92.0 mm 13.9°
1
1%
08:00
16°
1017.1 hPa 92.0 mm 14.9°
0
1%
11:00
21°
1016.6 hPa 92.1 mm 13.6°
2
1%
14:00
23°
1015.2 hPa 92.4 mm 16.7°
2
1%
17:00
24°
1014.8 hPa 92.7 mm 13.0°
3
1%
20:00
19°
1016.2 hPa 92.9 mm 15.2°
1
0%
23:00
15°
1017.7 hPa 92.9 mm 13.8°
2
0%
 06:30     20:18    Daglengte: 13:48 Dinsdag 23 Aug
02:00
14°
1018.2 hPa 92.9 mm 12.3°
2
0%
05:00
13°
1018.6 hPa 92.9 mm 11.1°
2
0%
08:00
16°
1019.0 hPa 92.9 mm 11.5°
1
0%
11:00
21°
1017.8 hPa 92.9 mm 11.8°
2
0%
14:00
25°
1016.4 hPa 92.9 mm 11.7°
3
0%
17:00
25°
1015.9 hPa 92.9 mm 12.1°
3
0%
20:00
18°
1017.2 hPa 92.9 mm 14.7°
1
0%
23:00
15°
1018.5 hPa 92.9 mm 12.8°
2
0%
 06:31     20:16    Daglengte: 13:45 Woensdag 24 Aug
02:00
14°
1018.4 hPa 92.9 mm 11.8°
2
0%
05:00
13°
1018.3 hPa 92.9 mm 11.3°
2
0%
08:00
16°
1018.1 hPa 92.9 mm 11.7°
1
0%
11:00
22°
1017.3 hPa 92.9 mm 11.8°
2
0%
14:00
25°
1016.3 hPa 92.9 mm 12.6°
2
0%
17:00
25°
1015.9 hPa 92.9 mm 12.9°
2
0%
20:00
19°
1016.8 hPa 92.9 mm 15.4°
1
1%
23:00
16°
1018.5 hPa   13.6°
2
1%
 06:33     20:15    Daglengte: 13:42 Donderdag 25 Aug
02:00
16°
1018.3 hPa 185.7 mm 13.0°
2
0%
08:00
17°
1018.5 hPa 185.7 mm 12.9°
1
0%
14:00
26°
1016.5 hPa 185.7 mm 14.4°
2
0%
20:00
21°
1016.6 hPa 185.7 mm 17.6°
0
0%
 06:34     20:13    Daglengte: 13:39 Vrijdag 26 Aug
02:00
18°
1018.0 hPa 185.7 mm 15.3°
2
0%
08:00
19°
1017.1 hPa 185.7 mm 14.7°
1
0%
14:00
28°
1014.5 hPa 185.7 mm 15.6°
2
0%
20:00
22°
1014.5 hPa 186.5 mm 18.9°
1
0%
 06:35     20:11    Daglengte: 13:36 Zaterdag 27 Aug
02:00
18°
1016.1 hPa 188.5 mm 15.5°
2
1%
08:00
19°
1017.0 hPa 189.0 mm 14.5°
2
0%
14:00
29°
Voelt als: 28.4°
1015.3 hPa 189.3 mm 14.5°
2
1%
20:00
22°
1018.9 hPa 2.0 mm 19.4°
1
58%
 06:36     20:09    Daglengte: 13:33 Zondag 28 Aug
02:00
19°
1020.0 hPa 0.8 mm 16.6°
1
62%
08:00
20°
1020.2 hPa 0.8 mm 17.2°
1
58%
14:00
28°
1018.9 hPa 0.6 mm 19.0°
2
53%
20:00
22°
1019.7 hPa 2.5 mm 19.3°
1
67%
 06:38     20:07    Daglengte: 13:29 Maandag 29 Aug
02:00
19°
1020.8 hPa 0.7 mm 17.0°
1
69%
08:00
19°
1020.6 hPa 1.2 mm 17.2°
1
50%
14:00
27°
1019.3 hPa 1.7 mm 18.6°
2
49%
20:00
22°
1019.5 hPa 2.0 mm 18.9°
0
66%
 06:39     20:05    Daglengte: 13:26 Dinsdag 30 Aug
02:00
18°
1020.5 hPa 0.8 mm 16.1°
1
68%
08:00
19°
1020.2 hPa 0.6 mm 16.6°
1
53%
14:00
27°
1018.4 hPa 1.0 mm 18.6°
2
54%
20:00
21°
1018.6 hPa 2.3 mm 18.2°
0
65%
 06:40     20:03    Daglengte: 13:23 Woensdag 31 Aug
02:00
18°
1019.6 hPa 0.8 mm 15.9°
1
54%
08:00
18°
1019.1 hPa 0.4 mm 16.1°
1
47%
14:00
27°
1017.2 hPa 0.8 mm 17.8°
2
44%
20:00
21°
1017.6 hPa 1.8 mm 17.8°
0
62%
 06:42     20:01    Daglengte: 13:19 Donderdag 01 Sep
02:00
17°
1019.0 hPa 1.9 mm 15.4°
1
53%
08:00
18°
1019.0 hPa 0.7 mm 15.4°
1
49%
14:00
26°
1017.4 hPa 0.8 mm 16.7°
2
48%
20:00
20°
1018.1 hPa 1.3 mm 16.7°
0
59%
  CAPE Lifted Index Hail Supercell Tornado SRH 3km CL BTM PRES CL TOP PRES Swiss DWD icon SMHI TS
 06:23     20:27    Daglengte: 14:04 Vandaag
01:00 216 J/kg -2.0 K 0 % 0 % 0 % 0 m²/s² 0 0 -1.19 3
02:00 117 J/kg -1.1 K 0 % 0 % 0 % 0 m²/s² 0 0 0.04 2
03:00 0 J/kg -1.0 K 0 % 0 % 0 % 0 m²/s² 0 0 0.41 3
04:00 0 J/kg -1.2 K 0 % 0 % 0 % 0 m²/s² 0 0 0.48 3
05:00 0 J/kg -1.2 K 0 % 0 % 0 % 0 m²/s² 0 0 0.54 3
06:00 0 J/kg -0.5 K 0 % 0 % 0 % 0 m²/s² 0 0 0.64 3
07:00 0 J/kg -1.9 K 0 % 0 % 0 % 0 m²/s² 0 0 -1.03 3
08:00 0 J/kg -1.0 K 0 % 0 % 0 % 0 m²/s² 0 0 0.11 3
09:00 83 J/kg -1.1 K 0 % 0 % 0 % 0 m²/s² 0 0 -0.62 3
10:00 145 J/kg -1.5 K 0 % 0 % 0 % 0 m²/s² 0 0 -0.39 3
11:00 186 J/kg -1.5 K 0 % 0 % 0 % 0 m²/s² 0 0 -0.33 3
12:00 646 J/kg -2.3 K 0 % 0 % 0 % 0 m²/s² 0 0 -1.67 3
13:00 839 J/kg -3.2 K 0 % 0 % 0 % 0 m²/s² 0 0 -2.51 80
14:00 644 J/kg -2.6 K 0 % 0 % 0 % 0 m²/s² 0 0 -1.73 3
15:00 530 J/kg -2.5 K 0 % 0 % 0 % 0 m²/s² 0 0 -1.63 3
16:00 409 J/kg -2.1 K 0 % 0 % 0 % 0 m²/s² 0 0 -1.38 3
17:00 149 J/kg -0.4 K 0 % 0 % 0 % 0 m²/s² 0 0 0.38 3
18:00 0 J/kg -0.1 K 0 % 0 % 0 % 0 m²/s² 0 0 0.83 95
19:00 193 J/kg -1.5 K 0 % 0 % 0 % 0 m²/s² 0 0 -1.05 80
20:00 226 J/kg -2.2 K 0 % 0 % 0 % 0 m²/s² 0 0 -1.66 95
21:00 187 J/kg -1.9 K 0 % 0 % 0 % 0 m²/s² 0 0 0.44 95
22:00 164 J/kg -2.1 K 0 % 0 % 0 % 0 m²/s² 0 0 1.41 95
23:00 96 J/kg -1.7 K 0 % 0 % 0 % 0 m²/s² 0 0 -0.14 95
 06:25     20:26    Daglengte: 14:01 Morgen
00:00 125 J/kg -1.9 K 0 % 0 % 0 % 0 m²/s² 0 0 -0.04 80
01:00 133 J/kg -1.8 K 0 % 0 % 0 % 0 m²/s² 0 0 0.99 95
02:00 201 J/kg -3.1 K 0 % 0 % 0 % 0 m²/s² 0 0 -0.31 95
03:00 73 J/kg -1.7 K 0 % 0 % 0 % 0 m²/s² 0 0 0.58 95
04:00 210 J/kg -3.6 K 0 % 0 % 0 % 0 m²/s² 0 0 -2.22 95
05:00 142 J/kg -2.1 K 0 % 0 % 0 % 0 m²/s² 0 0 0.24 95
06:00 132 J/kg -1.9 K 0 % 0 % 0 % 0 m²/s² 0 0 1.88 95
07:00 218 J/kg -2.5 K 0 % 0 % 0 % 0 m²/s² 0 0 -1.18 95
08:00 321 J/kg -2.5 K 0 % 0 % 0 % 0 m²/s² 0 0 -2.05 95
09:00 522 J/kg -2.3 K 0 % 0 % 0 % 0 m²/s² 0 0 -1.76 95
10:00 741 J/kg -3.3 K 0 % 0 % 0 % 0 m²/s² 0 0 -3.18 95
11:00 715 J/kg -3.1 K 0 % 0 % 0 % 0 m²/s² 0 0 -2.83 80
12:00 207 J/kg -1.2 K 0 % 0 % 0 % 0 m²/s² 0 0 -1.02 95
13:00 6 J/kg 0.7 K 0 % 0 % 0 % 0 m²/s² 0 0 1.24 80
14:00 4 J/kg 0.5 K 0 % 0 % 0 % 0 m²/s² 0 0 0.71 80
15:00 49 J/kg 0.0 K 0 % 0 % 0 % 0 m²/s² 0 0 0.3 3
16:00 12 J/kg 1.0 K 0 % 0 % 0 % 0 m²/s² 0 0 1.48 80
17:00 104 J/kg -0.4 K 0 % 0 % 0 % 0 m²/s² 0 0 -0.37 80
18:00 154 J/kg -0.3 K 0 % 0 % 0 % 0 m²/s² 0 0 -0.03 80
19:00 153 J/kg -0.4 K 0 % 0 % 0 % 0 m²/s² 0 0 -0.31 80
20:00 45 J/kg -0.7 K 0 % 0 % 0 % 0 m²/s² 0 0 -0.61 3
21:00 6 J/kg -1.2 K 0 % 0 % 0 % 0 m²/s² 0 0 -1.2 3
22:00 27 J/kg -1.4 K 0 % 0 % 0 % 0 m²/s² 0 0 -1.4 80
23:00 110 J/kg -0.7 K 0 % 0 % 0 % 0 m²/s² 0 0 -0.67 80
 06:26     20:24    Daglengte: 13:58 Zaterdag 20 Aug
00:00 112 J/kg 0.5 K 0 % 0 % 0 % 0 m²/s² 0 0 0.86 80
01:00 49 J/kg 0.9 K 0 % 0 % 0 % 0 m²/s² 0 0 1.71 80
02:00 47 J/kg 1.2 K 0 % 0 % 0 % 0 m²/s² 0 0 2.34 80
03:00 0 J/kg 1.4 K 0 % 0 % 0 % 0 m²/s² 0 0 3.95 80
04:00 0 J/kg 1.5 K 0 % 0 % 0 % 0 m²/s² 0 0 4.5 80
05:00 0 J/kg 1.7 K 0 % 0 % 0 % 0 m²/s² 0 0 6.05 80
06:00 0 J/kg 2.4 K 0 % 0 % 0 % 0 m²/s² 0 0 6.24 80
07:00 0 J/kg 2.3 K 0 % 0 % 0 % 0 m²/s² 0 0 4.13 2
08:00 0 J/kg 1.9 K 0 % 0 % 0 % 0 m²/s² 0 0 3.37 2
09:00 64 J/kg 1.3 K 0 % 0 % 0 % 0 m²/s² 0 0 2.14 2
10:00 76 J/kg 1.1 K 0 % 0 % 0 % 0 m²/s² 0 0 1.58 2
11:00 100 J/kg 0.6 K 0 % 0 % 0 % 0 m²/s² 0 0 1.02 80
12:00 232 J/kg -0.8 K 0 % 0 % 0 % 0 m²/s² 0 0 -0.38 2
13:00 485 J/kg -2.1 K 0 % 0 % 0 % 0 m²/s² 0 0 -1.26 2
14:00 779 J/kg -3.2 K 0 % 0 % 0 % 0 m²/s² 0 0 -2.3 3
15:00 880 J/kg -3.2 K 0 % 0 % 0 % 0 m²/s² 0 0 -2.39 95
16:00 867 J/kg -3.0 K 0 % 0 % 0 % 0 m²/s² 0 0 -2.37 95
17:00 673 J/kg -2.8 K 0 % 0 % 0 % 0 m²/s² 0 0 -2.08 80
18:00 616 J/kg -2.3 K 0 % 0 % 0 % 0 m²/s² 0 0 -1.73 3
19:00 583 J/kg -2.2 K 0 % 0 % 0 % 0 m²/s² 0 0 -1.48 3
20:00 532 J/kg -1.9 K 0 % 0 % 0 % 0 m²/s² 0 0 -1.18 45
21:00 375 J/kg -1.5 K 0 % 0 % 0 % 0 m²/s² 0 0 -0.84 45
22:00 274 J/kg -1.0 K 0 % 0 % 0 % 0 m²/s² 0 0 0.11 2
23:00 227 J/kg -0.6 K 0 % 0 % 0 % 0 m²/s² 0 0 0.93 2
 06:27     20:22    Daglengte: 13:55 Zondag 21 Aug
00:00 109 J/kg -0.4 K 0 % 0 % 0 % 0 m²/s² 0 0 1.64 3
Temp Baro Wind Neerslag
  EWN Forecast EWN WRFDA DWD ICON FMI HIRLAM MET Norway GFS
 06:23     20:27    Daglengte: 14:04 Vandaag
02:00 18.8° 1014.0 hPa 1.7 m/s 0.0 mm 17.4° 1012.1 hPa 1.9 m/s 0.9 mm 18.0° 1013.6 hPa 1.8 m/s -2.0 mm 19.4° 1016.4 hPa 1.9 m/s 0.0 mm 17.4° 1014.3 hPa 1.3 m/s
05:00 17.5° 1013.4 hPa 1.7 m/s 0.0 mm 16.1° 1010.6 hPa 1.6 m/s 1.4 mm 16.6° 1012.4 hPa 0.4 m/s 0.0 mm 17.7° 1016.8 hPa 1.9 m/s 0.0 mm 16.9° 1013.9 hPa 0.8 m/s
08:00 18.0° 1012.7 hPa 1.1 m/s 0.0 mm 18.4° 1009.5 hPa 1.6 m/s 1.9 mm 17.3° 1012.6 hPa 0.2 m/s 0.0 mm 18.0° 1015.5 hPa 1.5 m/s 0.0 mm 18.3° 1014.4 hPa 0.7 m/s
11:00 19.7° 1013.1 hPa 2.0 m/s 0.0 mm 21.4° 1010.9 hPa 1.1 m/s 3.0 mm 19.2° 1013.2 hPa 1.3 m/s 0.0 mm 21.7° 1014.7 hPa 2.2 m/s 0.0 mm 21.6° 1013.0 hPa 2.2 m/s
14:00 21.8° 1012.3 hPa 2.1 m/s 0.0 mm 23.7° 1008.5 hPa 4.2 m/s 3.4 mm 19.8° 1012.6 hPa 0.7 m/s 0.7 mm 25.2° 1013.4 hPa 2.0 m/s 0.0 mm 22.5° 1012.1 hPa 1.7 m/s
17:00 22.5° 1011.5 hPa 2.7 m/s 0.0 mm 19.1° 1010.8 hPa 1.5 m/s 16.1 mm 21.0° 1011.7 hPa 1.6 m/s 0.1 mm 26.3° 1011.3 hPa 4.3 m/s 0.0 mm 21.3° 1011.8 hPa 0.9 m/s
20:00 20.4° 1011.9 hPa 2.2 m/s 8.0 mm 20.1° 1008.6 hPa 2.3 m/s 54.2 mm 18.4° 1012.3 hPa 0.9 m/s 1.7 mm 23.6° 1012.4 hPa 2.3 m/s 0.0 mm 19.3° 1011.9 hPa 0.6 m/s
23:00 18.0° 1012.8 hPa 0.7 m/s 16.7 mm 18.7° 1008.0 hPa 0.6 m/s 54.9 mm 17.2° 1013.3 hPa 0.6 m/s 2.5 mm 19.6° 1013.4 hPa 0.5 m/s 0.0 mm 17.7° 1013.5 hPa 0.7 m/s
 06:25     20:26    Daglengte: 14:01 Morgen
02:00 17.5° 1012.8 hPa 0.7 m/s 17.4 mm 17.4° 1009.4 hPa 1.7 m/s 55.6 mm 16.9° 1013.3 hPa 0.9 m/s 2.6 mm 17.7° 1013.1 hPa 0.7 m/s 0.0 mm 17.8° 1012.9 hPa 0.5 m/s
05:00 17.1° 1012.7 hPa 1.2 m/s 14.7 mm 17.4° 1008.5 hPa 1.9 m/s 56.0 mm 16.7° 1013.1 hPa 1.2 m/s 2.5 mm 17.0° 1013.4 hPa 1.7 m/s 0.0 mm 17.6° 1012.0 hPa 1.0 m/s
08:00 17.3° 1013.5 hPa 1.6 m/s 18.6 mm 17.9° 1009.5 hPa 0.9 m/s 57.6 mm 17.1° 1014.2 hPa 1.6 m/s 4.7 mm 18.3° 1013.8 hPa 1.2 m/s 0.0 mm 17.7° 1012.4 hPa 1.6 m/s
11:00 18.2° 1014.5 hPa 1.9 m/s 18.7 mm 19.9° 1010.4 hPa 3.0 m/s 61.4 mm 17.5° 1015.5 hPa 1.8 m/s 3.4 mm 22.0° 1013.4 hPa 2.1 m/s 0.0 mm 17.9° 1013.4 hPa 1.8 m/s
14:00 19.1° 1015.7 hPa 1.7 m/s 20.9 mm 17.7° 1012.4 hPa 1.7 m/s 78.7 mm 19.2° 1016.5 hPa 1.2 m/s 2.2 mm 21.7° 1013.6 hPa 1.5 m/s 0.0 mm 17.7° 1014.6 hPa 1.8 m/s
17:00 18.7° 1016.1 hPa 1.9 m/s 26.1 mm 18.3° 1014.2 hPa 2.0 m/s 105.5 mm 18.4° 1016.6 hPa 1.1 m/s 3.4 mm 22.3° 1014.0 hPa 2.1 m/s 0.0 mm 17.0° 1016.7 hPa 1.8 m/s
20:00 18.3° 1016.7 hPa 1.8 m/s 17.6 mm 17.9° 1014.7 hPa 1.8 m/s 114.0 mm 18.0° 1017.5 hPa 1.0 m/s 1.4 mm 21.2° 1015.0 hPa 1.5 m/s 0.0 mm 16.8° 1017.6 hPa 1.8 m/s
23:00 17.4° 1018.2 hPa 1.9 m/s 16.2 mm 17.9° 1016.0 hPa 2.8 m/s 115.1 mm 17.0° 1018.6 hPa 1.5 m/s 0.9 mm 16.3° 1018.7 hPa 2.3 m/s
 06:26     20:24    Daglengte: 13:58 Zaterdag 20 Aug
02:00 17.2° 1018.4 hPa 1.2 m/s 24.8 mm 17.9° 1016.2 hPa 2.0 m/s 115.7 mm 16.6° 1018.7 hPa 1.0 m/s 1.9 mm 15.6° 1018.8 hPa 2.0 m/s
05:00 16.1° 1018.2 hPa 1.4 m/s 24.1 mm 15.2° 1015.9 hPa 2.6 m/s 115.8 mm 16.2° 1018.5 hPa 1.4 m/s 1.4 mm 16.0° 1018.2 hPa 1.9 m/s
08:00 17.2° 1018.9 hPa 1.2 m/s 7.9 mm 18.9° 1016.9 hPa 2.1 m/s 115.8 mm 16.8° 1019.3 hPa 0.9 m/s 0.3 mm 17.0° 1018.3 hPa 1.4 m/s
11:00 20.5° 1019.0 hPa 1.1 m/s 13.0 mm 20.8° 1017.7 hPa 3.0 m/s 115.8 mm 20.4° 1019.3 hPa 0.6 m/s 0.2 mm 20.9° 1017.7 hPa 1.1 m/s
14:00 21.8° 1018.2 hPa 1.8 m/s 0.0 mm 20.9° 1017.4 hPa 3.5 m/s 116.6 mm 22.1° 1018.4 hPa 1.4 m/s 0.1 mm 21.5° 1017.8 hPa 1.5 m/s
17:00 19.9° 1018.3 hPa 1.6 m/s 44.5 mm 21.7° 1016.8 hPa 3.3 m/s 122.2 mm 19.5° 1018.7 hPa 1.1 m/s 5.7 mm 21.1° 1017.7 hPa 1.1 m/s
20:00 18.5° 1019.0 hPa 1.7 m/s 28.3 mm 19.7° 1016.6 hPa 2.7 m/s 125.2 mm 18.2° 1019.6 hPa 1.5 m/s 1.0 mm 18.2° 1018.4 hPa 0.7 m/s
23:00 16.9° 1019.3 hPa 0.6 m/s 0.0 mm 17.7° 1017.5 hPa 1.2 m/s 126.5 mm 16.7° 1019.7 hPa 0.5 m/s 0.0 mm 15.9° 1019.6 hPa 1.2 m/s
 06:27     20:22    Daglengte: 13:55 Zondag 21 Aug
02:00 15.6° 1019.0 hPa 0.5 m/s 43.6 mm 16.3° 1017.2 hPa 1.5 m/s 127.1 mm 15.5° 1019.4 hPa 0.3 m/s 1.9 mm 14.4° 1019.2 hPa 1.7 m/s
05:00 13.6° 1018.2 hPa 1.7 m/s 85.5 mm 13.6° 1018.2 hPa 1.7 m/s 85.5 mm
08:00 15.4° 1018.0 hPa 0.9 m/s 85.5 mm 15.4° 1018.0 hPa 0.9 m/s 85.5 mm
11:00 20.9° 1016.3 hPa 1.3 m/s 85.6 mm 20.9° 1016.3 hPa 1.3 m/s 85.6 mm
14:00 22.6° 1014.7 hPa 2.1 m/s 85.9 mm 22.6° 1014.7 hPa 2.1 m/s 85.9 mm
17:00 21.4° 1014.8 hPa 1.1 m/s 87.2 mm 21.4° 1014.8 hPa 1.1 m/s 87.2 mm
20:00 17.6° 1015.9 hPa 0.6 m/s 89.3 mm 17.6° 1015.9 hPa 0.6 m/s 89.3 mm
23:00 16.2° 1017.1 hPa 1.1 m/s 91.7 mm 16.2° 1017.1 hPa 1.1 m/s 91.7 mm
 06:29     20:20    Daglengte: 13:51 Maandag 22 Aug
02:00 15.9° 1016.6 hPa 0.8 m/s 92.0 mm 15.9° 1016.6 hPa 0.8 m/s 92.0 mm
05:00 14.9° 1016.7 hPa 1.1 m/s 92.0 mm 14.9° 1016.7 hPa 1.1 m/s 92.0 mm
08:00 16.2° 1017.1 hPa 0.3 m/s 92.0 mm 16.2° 1017.1 hPa 0.3 m/s 92.0 mm
11:00 20.8° 1016.6 hPa 1.7 m/s 92.1 mm 20.8° 1016.6 hPa 1.7 m/s 92.1 mm
14:00 23.3° 1015.2 hPa 2.0 m/s 92.4 mm 23.3° 1015.2 hPa 2.0 m/s 92.4 mm
17:00 24.4° 1014.8 hPa 2.6 m/s 92.7 mm 24.4° 1014.8 hPa 2.6 m/s 92.7 mm
20:00 18.5° 1016.2 hPa 1.4 m/s 92.9 mm 18.5° 1016.2 hPa 1.4 m/s 92.9 mm
23:00 15.2° 1017.7 hPa 1.9 m/s 92.9 mm 15.2° 1017.7 hPa 1.9 m/s 92.9 mm
 06:30     20:18    Daglengte: 13:48 Dinsdag 23 Aug
02:00 14.0° 1018.2 hPa 1.8 m/s 92.9 mm 14.0° 1018.2 hPa 1.8 m/s 92.9 mm
05:00 13.1° 1018.6 hPa 1.7 m/s 92.9 mm 13.1° 1018.6 hPa 1.7 m/s 92.9 mm
08:00 15.5° 1019.0 hPa 0.9 m/s 92.9 mm 15.5° 1019.0 hPa 0.9 m/s 92.9 mm
11:00 21.4° 1017.8 hPa 1.6 m/s 92.9 mm 21.4° 1017.8 hPa 1.6 m/s 92.9 mm
14:00 24.8° 1016.4 hPa 2.6 m/s 92.9 mm 24.8° 1016.4 hPa 2.6 m/s 92.9 mm
17:00 24.9° 1015.9 hPa 2.9 m/s 92.9 mm 24.9° 1015.9 hPa 2.9 m/s 92.9 mm
20:00 18.3° 1017.2 hPa 1.0 m/s 92.9 mm 18.3° 1017.2 hPa 1.0 m/s 92.9 mm
23:00 15.1° 1018.5 hPa 2.0 m/s 92.9 mm 15.1° 1018.5 hPa 2.0 m/s 92.9 mm
 06:31     20:16    Daglengte: 13:45 Woensdag 24 Aug
02:00 14.2° 1018.4 hPa 1.7 m/s 92.9 mm 14.2° 1018.4 hPa 1.7 m/s 92.9 mm
05:00 13.4° 1018.3 hPa 1.5 m/s 92.9 mm 13.4° 1018.3 hPa 1.5 m/s 92.9 mm
08:00 16.1° 1018.1 hPa 0.6 m/s 92.9 mm 16.1° 1018.1 hPa 0.6 m/s 92.9 mm
11:00 21.7° 1017.3 hPa 1.6 m/s 92.9 mm 21.7° 1017.3 hPa 1.6 m/s 92.9 mm
14:00 24.7° 1016.3 hPa 1.9 m/s 92.9 mm 24.7° 1016.3 hPa 1.9 m/s 92.9 mm
17:00 25.0° 1015.9 hPa 1.6 m/s 92.9 mm 25.0° 1015.9 hPa 1.6 m/s 92.9 mm
20:00 19.3° 1016.8 hPa 0.8 m/s 92.9 mm 19.3° 1016.8 hPa 0.8 m/s 92.9 mm
23:00 16.5° 1018.5 hPa 2.0 m/s 92.9 mm 16.5° 1018.5 hPa 2.0 m/s 92.9 mm
 06:33     20:15    Daglengte: 13:42 Donderdag 25 Aug
02:00 15.5° 1018.3 hPa 1.8 m/s 92.9 mm 15.5° 1018.3 hPa 1.8 m/s 92.9 mm
08:00 17.5° 1018.5 hPa 0.7 m/s 92.9 mm 17.5° 1018.5 hPa 0.7 m/s 92.9 mm
14:00 25.9° 1016.5 hPa 1.9 m/s 92.9 mm 25.9° 1016.5 hPa 1.9 m/s 92.9 mm
20:00 20.8° 1016.6 hPa 0.2 m/s 92.9 mm 20.8° 1016.6 hPa 0.2 m/s 92.9 mm
 06:34     20:13    Daglengte: 13:39 Vrijdag 26 Aug
02:00 17.5° 1018.0 hPa 2.0 m/s 92.9 mm 17.5° 1018.0 hPa 2.0 m/s 92.9 mm
08:00 19.3° 1017.1 hPa 1.2 m/s 92.9 mm 19.3° 1017.1 hPa 1.2 m/s 92.9 mm
14:00 27.9° 1014.5 hPa 2.1 m/s 92.9 mm 27.9° 1014.5 hPa 2.1 m/s 92.9 mm
20:00 22.1° 1014.5 hPa 1.0 m/s 93.5 mm 22.1° 1014.5 hPa 1.0 m/s 93.5 mm
 06:35     20:11    Daglengte: 13:36 Zaterdag 27 Aug
02:00 18.1° 1016.1 hPa 2.3 m/s 94.3 mm 18.1° 1016.1 hPa 2.3 m/s 94.3 mm
08:00 18.7° 1017.0 hPa 1.7 m/s 94.7 mm 18.7° 1017.0 hPa 1.7 m/s 94.7 mm
14:00 28.6° 1015.3 hPa 1.9 m/s 94.7 mm 28.6° 1015.3 hPa 1.9 m/s 94.7 mm
20:00 22.4° 1018.9 hPa 0.7 m/s 2.0 mm
 06:36     20:09    Daglengte: 13:33 Zondag 28 Aug
02:00 19.0° 1020.0 hPa 1.5 m/s 0.8 mm
08:00 19.8° 1020.2 hPa 1.1 m/s 0.8 mm
14:00 28.2° 1018.9 hPa 1.9 m/s 0.6 mm
20:00 22.1° 1019.7 hPa 0.6 m/s 2.5 mm
 06:38     20:07    Daglengte: 13:29 Maandag 29 Aug
02:00 19.1° 1020.8 hPa 1.4 m/s 0.7 mm
08:00 19.4° 1020.6 hPa 0.9 m/s 1.2 mm
14:00 27.2° 1019.3 hPa 1.8 m/s 1.7 mm
20:00 21.5° 1019.5 hPa 0.4 m/s 2.0 mm
 06:39     20:05    Daglengte: 13:26 Dinsdag 30 Aug
02:00 18.1° 1020.5 hPa 1.4 m/s 0.8 mm
08:00 18.8° 1020.2 hPa 0.9 m/s 0.6 mm
14:00 26.6° 1018.4 hPa 1.9 m/s 1.0 mm
20:00 20.9° 1018.6 hPa 0.4 m/s 2.3 mm
 06:40     20:03    Daglengte: 13:23 Woensdag 31 Aug
02:00 17.8° 1019.6 hPa 1.3 m/s 0.8 mm
08:00 18.5° 1019.1 hPa 1.0 m/s 0.4 mm